SB KEPS @ AMSAT $ORB19178.N
2Line Orbital Elements 19178.AMSAT
HR AMSAT ORBITAL ELEMENTS FOR AMATEUR SATELLITES IN NASA FORMAT
FROM WA5QGD FORT WORTH,TX June 27, 2019
BID: ORB19178.N
DECODE 2-LINE ELSETS WITH THE FOLLOWING KEY:
1 AAAAAU 00 0 0 BBBBB.BBBBBBBB .CCCCCCCC 00000-0 00000-0 0 DDDZ
2 AAAAA EEE.EEEE FFF.FFFF GGGGGGG HHH.HHHH III.IIII JJ.JJJJJJJJKKKKKZ
KEY: A-CATALOGNUM B-EPOCHTIME C-DECAY D-ELSETNUM E-INCLINATION F-RAAN
G-ECCENTRICITY H-ARGPERIGEE I-MNANOM J-MNMOTION K-ORBITNUM Z-CHECKSUM
TO ALL RADIO AMATEURS BT
AO-07
1 07530U 74089B 19178.87524546 -.00000037 00000-0 52327-4 0 9994
2 07530 101.7441 146.4419 0012032 331.7041 55.9348 12.53638675 41679
UO-11
1 14781U 84021B 19178.20115261 .00000029 00000-0 96272-5 0 9992
2 14781 97.6101 202.5173 0007060 296.6254 63.4237 14.83092058900020
LO-19
1 20442U 90005G 19178.32771122 -.00000020 00000-0 90300-5 0 9997
2 20442 98.6489 120.3132 0012727 120.9154 239.3283 14.32927729537619
HUBBLE
1 20580U 90037B 19178.33129107 .00000419 00000-0 14583-4 0 9995
2 20580 28.4700 154.8109 0002663 209.0928 150.9457 15.09239228402191
MET-2/21
1 22782U 93055A 19178.21082825 .00000040 00000-0 22232-4 0 9996
2 22782 82.5481 156.3135 0022904 151.2325 287.4589 13.83818068304041
AO-27
1 22825U 93061C 19178.45564821 -.00000005 00000-0 16107-4 0 9994
2 22825 98.9032 167.2924 0008015 341.0615 19.0267 14.30061176343203
IO-26
1 22826U 93061D 19177.96562075 -.00000005 00000-0 16137-4 0 9992
2 22826 98.8971 166.7816 0008350 330.3608 29.7099 14.30394738343332
FO-29
1 24278U 96046B 19177.90539232 .00000002 00000-0 39733-4 0 9997
2 24278 098.5381 330.2023 0349696 218.5795 138.9881 13.53092114128666
NOAA-15
1 25338U 98030A 19178.25780556 .00000068 00000-0 47377-4 0 9991
2 25338 98.7460 199.5090 0009785 212.5676 147.4901 14.25917087 98465
GO-32
1 25397U 98043D 19178.75602585 -.00000025 00000-0 84294-5 0 9994
2 25397 98.6891 118.7902 0001926 46.6078 313.5261 14.23667042 89166
ISS
1 25544U 98067A 19179.08902587 .00002897 00000-0 56308-4 0 9998
2 25544 51.6433 307.1913 0008368 91.1931 90.6590 15.51247374176942
NO-44
1 26931U 01043C 19177.89039639 -.00000024 00000-0 22768-4 0 9997
2 26931 67.0518 342.5234 0006789 278.7474 81.2858 14.30545503926146
SO-50
1 27607U 02058C 19178.01853431 -.00000049 00000-0 14129-4 0 9993
2 27607 64.5554 24.1388 0081087 254.9471 104.2648 14.75554525888265
CO-55
1 27844U 03031E 19178.02512901 .00000034 00000-0 35192-4 0 9999
2 27844 98.6832 186.1138 0010112 14.5179 345.6288 14.22182553829472
CO-57
1 27848U 03031J 19178.01964173 .00000027 00000-0 32050-4 0 9996
2 27848 98.6910 186.6104 0010232 25.4618 334.7062 14.21777161829320
RS-22
1 27939U 03042A 19178.84811733 .00000113 00000-0 28766-4 0 9998
2 27939 98.0411 314.4863 0013773 43.6375 316.5915 14.66787198841889
NOAA-18
1 28654U 05018A 19178.34937197 .00000083 00000-0 69804-4 0 9990
2 28654 99.0950 225.4488 0014924 149.9932 210.2097 14.12433701726742
CO-58
1 28895U 05043F 19178.87401037 .00000071 00000-0 22495-4 0 9994
2 28895 97.9604 321.2908 0015901 326.7848 33.2355 14.63670558728821
Falconsat-3
1 30776U 07006E 19177.74692758 .00001317 00000-0 37962-4 0 9992
2 30776 35.4359 39.2666 0002765 205.7007 154.3583 15.36205252681923
CO-65
1 32785U 08021C 19178.89624580 .00000111 00000-0 17604-4 0 9999
2 32785 97.5491 178.1764 0011833 227.9394 132.0817 14.88313466605050
AAUSAT2
1 32788U 08021F 19178.01754681 -.00000010 00000-0 40457-5 0 9994
2 32788 97.4963 193.3812 0012101 164.2751 195.8848 14.94732538606164
DO-64
1 32789U 08021G 19178.58216587 .00000341 00000-0 26794-4 0 9998
2 32789 97.4634 227.9794 0014068 95.0868 265.1966 15.06964309608304
CO-66
1 32791U 08021J 19178.83212634 .00000304 00000-0 36161-4 0 9996
2 32791 97.5274 184.0985 0012664 201.1723 158.8973 14.90825128605471
RS-30
1 32953U 08025A 19178.90026398 .00000021 00000-0 75656-4 0 9996
2 32953 82.5019 139.0389 0020412 106.7894 253.5428 12.43090087503456
PRISM
1 33493U 09002B 19178.28685868 -.00000140 00000-0 -66979-5 0 9999
2 33493 98.1225 99.5684 0015502 149.3329 210.8800 14.96662309566435
NOAA-19
1 33591U 09005A 19178.33194532 .00000089 00000-0 73400-4 0 9996
2 33591 99.1797 169.6642 0013942 358.8929 1.2208 14.12360789535122
TISAT-1
1 36799U 10035E 19177.86914901 .00000064 00000-0 12624-4 0 9995
2 36799 098.1567 330.2926 0013516 062.8675 297.3918 14.91106883485789
JUGNU
1 37839U 11058B 19178.34890366 .00000289 00000-0 12298-4 0 9995
2 37839 19.9613 282.2839 0019158 62.4743 340.2183 14.12652721398489
SRMSAT
1 37841U 11058D 19177.86751944 .00000291 00000-0 14496-4 0 9997
2 37841 19.9737 342.1443 0011822 286.8778 232.6681 14.10634079397857
AO-71
1 37854U 11061E 19178.32832082 .00001046 00000-0 61047-4 0 9993
2 37854 101.7009 81.0148 0161009 40.2182 321.0814 15.06423715418290
HRBE
1 37855U 11061F 19178.63884374 .00000863 00000-0 50959-4 0 9995
2 37855 101.7140 78.8298 0173785 50.2942 311.3445 15.05428540418120
ALMASAT-1
1 38078U 12006B 19178.61494777 .00019897 41489-5 11255-3 0 9998
2 38078 69.4288 240.8155 0163749 248.4648 269.2163 15.63331399398884
HORYU-2
1 38340U 12025D 19178.59350711 .00000104 00000-0 23279-4 0 9997
2 38340 98.3282 217.4514 0012913 95.8569 264.4111 14.75721986382477
RS-40
1 38735U 12041C 19178.48467580 .00000032 00000-0 16200-3 0 9999
2 38735 82.4756 222.6026 0016244 212.4718 147.5368 12.42579162313642
BEESAT-3
1 39135U 13015F 19178.50804447 .00000517 00000-0 35509-4 0 9998
2 39135 64.8692 10.2954 0022237 320.9406 39.0113 15.17474739341585
BEESAT-2
1 39136U 13015G 19177.95501593 .00000569 00000-0 38659-4 0 9999
2 39136 64.8701 15.9270 0019585 300.0679 59.8505 15.16901758341426
ZACUBE-1
1 39417U 13066B 19178.01466475 .00000126 00000-0 22241-4 0 9993
2 39417 97.5618 191.0484 0059196 8.3243 351.8938 14.81117073302273
TRITON-1
1 39427U 13066M 19178.86282555 .00000150 00000-0 31618-4 0 9997
2 39427 97.6763 155.6741 0114853 135.5514 225.4979 14.67843044299683
GOMX-1
1 39430U 13066Q 19178.81081045 .00000093 00000-0 26133-4 0 9999
2 39430 97.7464 134.7627 0149913 225.2171 133.6757 14.59254529297933
LO-74
1 39440U 13066AA 19178.49723396 .00000121 00000-0 23691-4 0 9994
2 39440 97.6018 176.4138 0081640 57.0142 303.8882 14.75855284301275
AO-73
1 39444U 13066AE 19178.01063250 .00000165 00000-0 26631-4 0 9997
2 39444 97.5600 192.9984 0058130 2.2425 357.9038 14.81936002301167
SPROUT
1 39770U 14029E 19178.71370110 .00000125 00000-0 19987-4 0 9994
2 39770 97.8863 281.9489 0010447 60.4566 299.7683 14.87341803276179
DUCHIFAT-1
1 40021U 14033M 19178.33769608 .00000323 00000-0 38767-4 0 9999
2 40021 97.9241 102.9599 0013718 27.5605 332.6337 14.90630601272830
NANOSATCBR1
1 40024U 14033Q 19178.30188009 .00000116 00000-0 18016-4 0 9994
2 40024 97.9137 100.3252 0013092 31.4182 328.7815 14.89844845272724
EO-79
1 40025U 14033R 19177.76458778 .00000130 00000-0 19825-4 0 9992
2 40025 97.9060 97.4360 0013460 38.3784 321.8387 14.88944391272521
DTUSAT-2
1 40030U 14033W 19178.23338675 .00000123 00000-0 19304-4 0 9998
2 40030 97.8979 96.0503 0012811 33.0671 327.1344 14.88537355272525
EO-80
1 40032U 14033Y 19178.77706713 .00000143 00000-0 21480-4 0 9991
2 40032 97.8986 96.5932 0012715 32.0422 328.1565 14.88479865272596
ANTELSAT
1 40034U 14033AA 19178.19049208 .00000106 00000-0 23111-4 0 9990
2 40034 97.7602 45.0065 0060205 69.5311 291.2347 14.74104303269925
VELOX-1
1 40057U 14034E 19178.75060577 .00000193 00000-0 34556-4 0 9991
2 40057 98.2367 302.0345 0010466 197.8369 162.2483 14.77667865269101
DAURIA DX 1
1 40071U 14037C 19178.74157220 .00000040 00000-0 12642-4 0 9994
2 40071 98.4275 333.0882 0008262 188.0274 172.0816 14.81272056268595
UKUBE-1
1 40074U 14037F 19178.73233407 .00000174 00000-0 28066-4 0 9993
2 40074 98.4393 341.2054 0004239 162.9267 197.2089 14.84055342268999
HODOYOSHI-1
1 40299U 14070B 19178.77806987 .00000298 00000-0 15441-4 0 9992
2 40299 97.3478 258.3432 0013535 17.4157 77.8732 15.23369121257655
CHUBUSAT-1
1 40300U 14070C 19178.67947192 .00000327 00000-0 17214-4 0 9991
2 40300 97.3263 252.6350 0020784 28.2382 130.3020 15.22088361257388
QSAT-EOS
1 40301U 14070D 19178.69990802 .00000874 00000-0 36604-4 0 9991
2 40301 97.3261 255.7218 0026017 11.2994 139.5855 15.25930498257668
FIREBIRD FU3
1 40377U 15003B 19178.77753678 .00001739 00000-0 71805-4 0 9991
2 40377 99.1132 160.8728 0128204 60.4913 300.9030 15.18777110243305
FIREBIRD FU4
1 40378U 15003C 19178.43527211 .00001723 00000-0 71109-4 0 9997
2 40378 99.1135 160.5373 0128440 61.5027 299.9067 15.18781868243258
GRIFEX
1 40379U 15003D 19178.44504356 .00001189 00000-0 54345-4 0 9993
2 40379 99.1127 154.5622 0136500 79.8655 281.7938 15.15468212242915
NO-84
1 40654U 15025D 19178.11365714 .00007983 00000 0 11491-3 0 6538
2 40654 54.9881 134.3537 0136693 349.3447 10.4578 15.47046614113754
NO-83
1 40655U 15025E 19178.05508578 .00047397 11378-4 23425-3 0 7897
2 40655 54.9642 17.7040 0057572 58.9720 301.6974 15.80302724115041
DEORBITSAIL
1 40719U 15032E 19178.26144889 .00000227 00000-0 39579-4 0 9998
2 40719 97.9080 69.9123 0014920 280.4167 79.5362 14.76741362213526
NUDT-PHONESAT
1 40900U 15049B 19178.84839183 .00001071 00000-0 48782-4 0 9994
2 40900 97.4369 188.0928 0013777 146.4269 335.5650 15.22788290209053
XW-2A
1 40903U 15049E 19178.86697541 .00001057 00000-0 26866-4 0 9992
2 40903 97.3367 221.6837 0015467 109.8183 354.5271 15.41853952211661
XW-2C
1 40906U 15049H 19178.84991983 .00000186 00000-0 13234-4 0 9997
2 40906 97.4670 180.7762 0015555 160.9821 318.7258 15.15672203208380
XW-2D
1 40907U 15049J 19178.75425690 .00000190 00000-0 13401-4 0 9996
2 40907 97.4649 180.3594 0014904 158.1005 288.1097 15.15859176208383
LILACSAT-2
1 40908U 15049K 19178.78084487 .00000058 00000-0 67937-5 0 9992
2 40908 97.4779 179.2337 0016224 165.1487 280.9446 15.13800181208185
XW-2E
1 40909U 15049L 19178.80550238 .00000648 00000-0 35358-4 0 9994
2 40909 97.4590 183.2175 0014230 152.8405 293.0841 15.17779021208579
XW-2F
1 40910U 15049M 19178.77361012 .00000348 00000-0 20805-4 0 9990
2 40910 97.4615 182.3702 0015572 151.9172 294.0384 15.17290615208396
